Location: ????????
(60.4333°N, 46.4710°E)
Time: 03:36:40
(UTC+00:00)

Cosmos 2333 Rocket - Pass Details

Date: 25 November 2020
Orbit: 841 x 861 km, 70.8° (Epoch: 19 January)

Event Time Altitude Azimuth Distance (km) Brightness Sun altitude
Rises 13:27:23 0° 197° (SSW) 3,403 6.0 -9.5°
Reaches altitude 10° 13:29:53 10° 192° (SSW) 2,468 5.2 -9.7°
Maximum altitude 13:35:20 51° 119° (ESE) 1,056 2.5 -10.3°
Enters shadow 13:40:22 12° 46° (NE) 2,316 3.9 -10.9°
